Wetbulb
70.77 72.48 73.49 74.29 74.84 75.94 76.52 76.95 76.92 79.52 77.56 76.34 75.76 75.45 74.50 75.50 76.02 76.75 78.31 78.54 78.45 78.02 78.32 76.47 76.55 77.11 76.99 77.85 77.41 76.51 75.72 70.06 71.75 69.40 68.47 68.95 70.03 71.43 71.09 70.19 70.89 71.33 71.97
68.94 70.70 72.22 73.37 74.07 74.86 76.20 76.99 77.46 78.95 78.28 77.10 77.03 76.78 76.48 75.51 76.08 76.55 78.52 78.85 78.52 78.48 78.26 78.51 78.02 78.15 76.38 78.81 77.95 76.37 71.78 70.04 70.22 67.80 67.62 65.23 66.69 69.19 69.55 70.50 69.83 71.01 70.81
67.84 69.61 71.25 72.68 73.55 74.18 75.23 77.10 78.38 78.96 79.43 79.93 78.00 77.54 77.79 77.15 75.74 76.23 76.34 77.87 78.67 78.90 79.02 78.93 79.09 79.46 78.74 75.58 77.16 74.96 73.29 67.87 69.61 71.06 68.25 64.50 62.18 65.65 69.38 70.16 69.02 70.17 68.84
68.39 69.52 70.40 72.05 73.01 73.55 75.12 77.52 78.58 79.38 79.56 80.51 78.33 79.01 75.65 74.05 74.77 76.14 76.58 77.04 78.27 78.45 78.65 79.57 79.63 79.69 78.16 77.14 75.88 73.97 72.54 73.27 68.30 69.11 69.76 72.64 69.47 64.26 63.26 66.61 67.90 69.50 69.87
67.83 69.26 70.29 71.58 72.99 73.74 74.20 75.78 79.25 80.17 80.73 80.42 79.76 78.00 77.35 75.81 75.73 76.10 80.13 81.07 80.22 78.86 78.86 79.89 79.41 79.20 77.38 78.25 75.56 72.96 72.48 70.46 69.86 68.65 69.06 70.21 67.74 69.55 63.74 60.59 63.19 65.44 65.59
68.21 69.84 71.74 72.53 72.84 73.56 74.18 75.07 78.83 80.46 81.16 81.25 80.52 80.75 80.10 78.40 76.17 76.67 76.06 75.98 76.74 77.54 79.36 78.86 78.96 78.52 76.79 75.31 73.54 73.17 72.20 72.65 71.67 70.37 70.39 66.68 64.55 63.27 62.53 61.33 62.54 62.11 64.19
69.07 68.84 70.60 72.61 74.09 73.86 74.36 74.78 78.58 79.85 80.90 80.45 80.35 80.33 80.64 81.68 80.26 80.07 76.32 77.52 75.05 75.26 78.76 78.89 77.78 75.95 75.81 74.40 73.80 73.32 72.47 72.07 70.87 71.36 68.72 67.09 65.38 64.63 63.08 61.15 59.96 59.52 62.13
70.17 69.74 69.65 71.12 72.93 73.73 75.72 76.12 77.10 79.57 80.80 80.62 80.83 81.51 81.40 78.42 78.09 79.56 77.02 76.19 75.49 76.11 79.87 78.03 77.12 74.90 74.05 73.58 74.04 71.80 71.49 72.15 71.48 70.70 70.17 66.96 65.39 64.41 63.05 61.46 60.67 59.31 60.97
69.42 70.84 71.08 70.55 72.48 73.85 75.38 75.91 77.07 79.50 80.50 80.57 81.17 81.48 81.37 80.95 78.71 80.02 81.20 77.63 80.27 77.16 78.68 76.98 75.45 74.13 74.31 73.78 73.19 71.46 71.44 72.57 71.37 69.71 69.01 66.89 64.89 64.49 63.80 63.43 63.00 61.03 58.52
68.10 69.77 71.71 73.45 71.98 72.58 74.19 75.07 76.69 78.84 80.37 80.73 81.28 81.18 81.63 81.68 81.27 81.81 81.12 79.26 80.30 80.83 78.77 75.67 74.28 74.00 73.97 73.46 73.13 72.02 72.56 71.38 69.14 67.18 68.07 67.17 65.60 65.53 64.13 62.74 63.04 63.87 62.54
66.25 68.15 70.16 72.24 73.13 72.17 72.48 73.85 75.45 77.32 80.11 79.98 80.18 80.63 81.20 81.25 81.78 80.97 81.29 80.72 81.33 80.95 76.36 75.63 74.49 73.54 73.44 73.44 72.64 72.45 71.40 69.40 68.48 68.05 67.37 66.47 68.33 64.39 63.94 62.92 63.81 63.43 63.79
65.49 66.75 68.68 70.62 72.21 73.09 73.72 73.06 75.82 76.73 79.15 80.43 81.11 81.04 81.66 81.66 81.29 81.08 80.99 81.76 81.48 80.07 76.74 73.22 74.18 73.83 73.54 73.02 72.31 71.43 70.55 68.13 67.53 67.19 67.08 65.99 64.99 66.32 66.56 62.72 64.82 63.31 65.57
68.55 69.38 69.38 70.37 72.47 74.00 75.07 76.05 76.43 76.83 78.89 80.63 80.97 81.62 81.76 82.05 81.59 81.82 81.54 81.62 81.06 79.22 77.60 75.15 73.31 73.56 73.33 72.39 72.19 71.62 69.80 68.20 67.43 67.40 66.52 65.94 65.79 66.05 64.27 64.17 63.31 62.85 63.27
69.03 71.01 71.53 74.38 74.80 76.35 76.82 77.29 76.98 77.22 79.03 79.91 80.25 80.53 80.48 80.96 80.45 81.48 80.83 80.41 79.80 77.74 76.30 72.60 72.79 74.04 72.89 72.30 72.18 70.51 69.44 68.01 67.78 67.56 67.01 66.41 65.46 65.13 63.88 63.15 64.09 63.98 61.96
67.92 70.85 72.04 74.19 76.96 77.77 77.85 78.28 78.03 78.76 79.48 80.00 79.66 79.92 80.15 80.22 79.68 79.20 78.59 78.62 77.68 77.12 76.63 74.26 74.17 73.43 72.34 71.67 71.19 69.76 68.51 67.90 67.45 67.31 67.15 66.86 64.50 63.14 63.04 61.92 62.64 61.97 59.55
66.67 69.71 72.90 73.64 75.20 76.30 77.37 77.45 78.35 79.32 79.37 78.86 78.73 79.60 80.19 79.38 79.14 78.63 78.15 78.13 76.31 73.91 74.45 73.83 73.34 72.55 71.28 63.17 64.94 66.61 67.54 67.23 67.09 66.73 66.92 66.19 64.26 63.27 61.84 61.37 60.12 59.85 59.86
64.99 68.71 72.85 75.34 76.96 75.86 77.70 75.99 77.25 79.03 79.73 79.42 78.58 78.64 79.45 78.89 78.54 77.79 76.73 75.71 73.98 74.20 73.45 73.61 72.64 71.64 71.34 61.64 62.38 63.10 65.71 66.31 66.88 67.06 66.33 63.60 62.24 63.05 62.77 60.19 58.51 60.18 61.09
65.60 67.93 71.96 74.83 76.62 76.81 77.19 77.97 77.22 78.35 77.56 78.17 78.36 79.28 78.63 77.16 76.72 76.13 74.52 73.57 73.12 73.06 71.84 72.82 72.11 71.41 68.32 60.19 60.58 62.20 66.40 66.93 67.06 67.14 64.81 63.27 63.05 59.98 57.38 56.94 58.47 60.45 62.24
68.09 70.11 71.51 75.71 76.73 76.63 77.83 78.35 77.69 77.85 78.00 77.96 77.94 76.25 76.67 75.52 74.44 73.37 74.13 74.13 73.33 73.16 72.12 71.81 71.29 70.49 68.79 58.50 58.38 61.98 66.34 66.28 67.11 65.19 64.23 63.06 62.19 51.42 52.22 55.97 57.36 59.33 59.85
69.63 70.85 73.45 75.30 76.04 77.69 77.45 78.20 77.91 77.44 77.37 77.11 76.44 75.84 75.70 75.51 74.36 74.68 75.33 74.70 73.62 71.75 70.91 70.16 71.73 67.45 69.93 56.84 56.34 60.58 65.33 65.19 63.71 65.89 64.82 53.75 55.78 50.55 49.75 54.72 56.28 56.06 57.24
72.71 74.08 74.13 74.51 76.07 77.73 78.00 76.97 76.81 76.32 77.00 77.05 76.67 76.54 76.48 75.60 75.24 75.67 74.65 72.44 71.60 71.45 71.34 69.94 71.46 70.38 68.24 62.05 54.21 53.80 61.23 62.24 60.42 60.14 60.26 58.07 50.13 48.13 47.54 47.75 56.37 53.79 53.97
73.09 73.93 74.29 75.86 77.12 77.52 77.21 76.29 75.74 76.07 75.94 76.11 75.98 76.01 75.91 75.03 74.11 72.96 72.17 71.78 71.45 70.22 70.05 69.93 68.53 67.67 69.57 57.94 51.96 51.56 51.80 54.03 58.37 59.56 58.06 56.19 47.39 46.35 46.80 49.58 49.08 49.74 52.18
73.91 74.80 74.58 74.86 75.40 75.53 75.39 73.63 75.01 75.59 75.92 75.33 75.24 75.06 73.88 72.72 72.53 71.02 71.68 70.80 70.58 70.12 68.17 67.27 67.70 67.04 67.60 61.91 50.19 50.58 52.00 52.51 56.34 58.14 52.66 50.35 48.82 47.47 50.08 48.83 50.12 51.17 54.49
72.32 72.98 72.79 72.08 72.70 73.19 73.63 73.81 74.19 74.59 74.13 73.61 73.55 73.94 73.28 72.44 72.84 71.69 71.14 70.22 68.46 68.29 66.05 65.70 67.40 66.82 66.65 62.61 59.27 56.65 56.72 53.39 56.29 57.59 57.21 54.89 51.58 51.61 51.37 53.91 54.38 54.48 54.95
70.25 69.62 68.42 68.28 68.96 70.91 72.26 73.27 74.07 74.57 73.46 73.27 72.91 72.46 70.59 71.52 67.88 61.10 58.78 66.55 58.95 58.84 66.09 67.57 67.90 66.12 65.80 54.39 47.74 53.94 58.06 55.34 51.40 51.65 56.26 53.91 52.98 52.32 52.30 52.73 53.46 52.39 52.85
66.10 65.95 66.15 66.49 66.51 67.37 68.37 71.05 72.26 72.48 71.88 70.97 71.16 71.03 70.87 69.50 66.85 64.28 62.18 48.71 49.93 49.35 50.24 51.12 60.21 57.10 49.91 43.30 42.84 43.30 43.91 44.60 45.56 53.46 52.92 52.25 51.90 51.11 51.02 51.35 51.25 51.16 51.95
MSLP
1007.43 1008.37 1009.33 1010.10 1010.91 1011.69 1012.50 1013.26 1013.89 1014.36 1014.86 1015.16 1015.08 1015.19 1014.90 1014.83 1014.68 1014.45 1014.77 1015.22 1015.67 1015.73 1015.90 1015.75 1015.39 1015.61 1015.59 1015.93 1016.29 1015.99 1015.88 1015.53 1015.23 1015.33 1014.66 1013.68 1012.92 1013.34 1013.16 1012.83 1012.77 1012.85 1012.70
1006.49 1007.53 1008.50 1009.41 1010.24 1011.06 1011.89 1012.73 1013.35 1013.93 1014.54 1014.55 1014.70 1014.44 1014.42 1014.01 1013.95 1013.93 1014.20 1014.98 1015.45 1015.65 1015.88 1015.93 1015.67 1015.57 1015.70 1015.69 1015.97 1016.46 1016.35 1015.64 1015.54 1015.62 1015.17 1013.90 1012.74 1012.90 1013.26 1013.03 1012.90 1012.63 1012.92
1005.45 1006.53 1007.67 1008.63 1009.43 1010.18 1011.13 1011.98 1012.79 1013.30 1013.87 1013.97 1014.22 1014.40 1014.27 1014.27 1013.97 1014.01 1014.33 1014.55 1015.11 1015.31 1015.51 1015.64 1015.75 1015.89 1015.93 1015.42 1016.25 1016.41 1016.48 1016.15 1015.77 1015.67 1015.59 1014.70 1014.28 1014.25 1012.91 1013.05 1012.65 1013.10 1012.88
1004.47 1005.49 1006.63 1007.72 1008.49 1009.28 1010.23 1011.17 1012.11 1012.71 1013.31 1013.69 1013.32 1013.63 1013.63 1013.58 1013.53 1013.73 1013.57 1013.78 1014.24 1014.70 1014.95 1015.13 1015.05 1015.34 1015.68 1015.96 1015.95 1016.29 1016.85 1016.49 1016.05 1015.55 1015.23 1015.59 1015.41 1014.80 1013.62 1013.08 1012.91 1012.73 1012.47
1003.25 1004.30 1005.40 1006.61 1007.62 1008.46 1009.23 1010.12 1011.16 1011.97 1012.41 1012.92 1013.05 1013.02 1013.40 1013.07 1013.22 1013.06 1013.06 1013.69 1013.90 1014.40 1014.37 1014.15 1014.55 1014.91 1014.93 1014.96 1015.85 1016.29 1016.68 1016.64 1016.17 1015.93 1015.89 1015.42 1014.97 1014.57 1014.26 1013.35 1012.74 1012.69 1012.45
1002.11 1003.29 1004.41 1005.61 1006.61 1007.44 1008.19 1008.94 1009.98 1010.94 1011.67 1012.05 1012.60 1012.63 1012.51 1012.93 1012.58 1012.74 1012.63 1013.11 1013.45 1013.65 1014.01 1014.07 1014.42 1014.58 1015.23 1015.50 1015.65 1015.87 1016.25 1016.62 1016.63 1016.58 1016.11 1015.34 1015.03 1014.77 1014.47 1013.96 1013.47 1012.97 1012.23
1000.71 1001.89 1003.08 1004.11 1005.17 1006.01 1006.83 1007.67 1008.65 1009.78 1010.65 1011.25 1011.61 1012.16 1012.34 1012.48 1012.57 1012.45 1012.38 1012.36 1012.28 1012.42 1013.45 1013.97 1014.50 1014.73 1015.13 1015.43 1015.50 1015.76 1015.90 1016.21 1016.37 1016.36 1016.23 1015.75 1015.38 1015.12 1014.81 1014.37 1013.66 1013.10 1012.66
999.46 1000.45 1001.65 1002.84 1003.76 1004.71 1005.67 1006.52 1007.16 1008.35 1009.44 1010.19 1010.74 1011.22 1011.80 1012.03 1012.12 1012.09 1011.95 1011.87 1011.99 1011.92 1013.05 1014.02 1014.44 1015.03 1015.05 1015.18 1015.31 1015.60 1015.54 1015.71 1015.76 1016.26 1016.46 1016.27 1015.76 1015.37 1015.05 1014.60 1013.98 1012.91 1012.21
998.04 999.02 1000.19 1001.35 1002.47 1003.39 1004.25 1005.15 1006.12 1007.13 1008.19 1009.04 1009.79 1010.37 1010.92 1011.29 1010.99 1011.37 1011.67 1011.76 1011.66 1011.74 1012.71 1014.13 1014.83 1015.10 1014.99 1015.09 1015.23 1015.20 1015.30 1015.15 1015.41 1015.89 1016.17 1016.03 1015.74 1015.46 1015.40 1014.81 1014.03 1013.24 1011.89
996.75 997.67 998.76 999.79 1000.89 1001.97 1003.09 1004.21 1005.05 1005.89 1006.97 1007.88 1008.61 1009.25 1009.71 1010.19 1010.64 1010.69 1010.90 1011.06 1011.35 1011.95 1012.90 1014.03 1013.80 1014.24 1014.77 1014.95 1015.05 1014.73 1014.57 1015.03 1015.44 1015.65 1015.83 1016.08 1015.67 1015.67 1015.16 1014.75 1014.09 1013.37 1012.23
995.37 996.14 997.05 998.37 999.62 1000.60 1001.67 1002.75 1003.78 1004.77 1005.83 1006.75 1007.42 1008.19 1008.71 1009.31 1009.85 1010.22 1010.27 1010.59 1011.01 1011.75 1012.95 1013.88 1014.24 1013.91 1014.48 1014.57 1014.57 1014.49 1014.54 1014.78 1015.25 1015.57 1015.64 1015.65 1015.76 1015.44 1015.29 1014.87 1014.03 1013.11 1012.62
994.70 994.94 995.59 996.61 998.22 999.36 1000.34 1001.38 1002.56 1003.61 1004.63 1005.75 1006.63 1007.24 1007.81 1008.47 1009.07 1009.53 1009.87 1010.20 1010.65 1011.55 1012.29 1012.91 1012.71 1013.67 1014.19 1014.31 1014.05 1013.99 1013.97 1014.39 1014.81 1015.06 1015.16 1015.25 1015.27 1015.15 1014.85 1014.28 1014.09 1013.71 1012.91
995.59 995.71 995.29 995.84 996.90 998.36 999.40 1000.37 1001.53 1002.60 1003.87 1005.05 1005.97 1006.70 1007.24 1007.79 1008.35 1008.77 1009.30 1009.72 1010.25 1011.31 1012.31 1013.02 1013.75 1014.22 1014.09 1013.95 1013.55 1013.68 1013.93 1014.41 1014.59 1014.85 1015.05 1014.92 1014.90 1014.76 1014.44 1014.37 1014.08 1013.53 1013.03
995.42 995.80 995.96 996.16 996.88 997.95 998.94 999.66 1000.61 1002.00 1003.17 1004.24 1005.26 1006.08 1006.65 1007.13 1007.78 1008.35 1008.95 1009.45 1010.05 1011.00 1011.79 1012.45 1013.23 1013.65 1013.53 1013.28 1013.01 1013.26 1013.86 1014.20 1014.51 1014.73 1014.87 1014.81 1014.66 1014.57 1014.60 1014.29 1014.01 1013.37 1013.21
994.91 995.73 996.32 996.73 997.40 998.21 998.95 999.58 1000.39 1001.39 1002.53 1003.61 1004.60 1005.40 1006.09 1006.63 1007.23 1007.97 1008.76 1009.37 1009.96 1010.61 1011.23 1011.87 1012.19 1012.66 1012.57 1012.36 1012.74 1013.33 1013.77 1014.06 1014.42 1014.73 1014.69 1014.33 1014.45 1014.31 1014.53 1014.31 1014.00 1013.97 1013.22
994.67 995.28 996.22 997.03 997.77 998.65 999.43 1000.00 1000.52 1001.25 1002.26 1003.43 1004.20 1004.93 1005.59 1006.15 1006.87 1007.73 1008.36 1009.07 1010.13 1010.88 1011.18 1011.36 1011.50 1011.70 1011.59 1012.19 1012.90 1013.44 1013.68 1014.07 1014.32 1014.42 1014.39 1014.42 1014.20 1013.92 1014.02 1014.19 1014.08 1014.05 1013.15
993.90 994.45 995.63 996.97 998.07 998.84 999.61 1000.12 1000.81 1001.63 1002.39 1003.26 1004.09 1004.65 1005.34 1006.11 1006.95 1007.68 1008.53 1009.19 1010.04 1010.59 1010.88 1011.05 1011.50 1011.93 1011.99 1012.88 1013.48 1013.73 1014.01 1014.01 1013.79 1013.98 1014.13 1014.23 1014.01 1014.07 1014.17 1014.10 1013.89 1013.03 1012.42
993.84 994.26 994.82 996.28 997.72 998.72 999.57 1000.18 1000.95 1001.71 1002.47 1003.12 1003.77 1004.42 1005.43 1006.25 1007.02 1007.75 1008.40 1009.05 1009.60 1010.03 1010.73 1011.02 1011.18 1011.17 1011.99 1012.99 1013.45 1013.78 1014.01 1013.94 1013.85 1013.77 1014.09 1014.15 1014.29 1014.46 1014.56 1014.40 1013.66 1012.75 1012.09
994.08 994.49 994.61 995.96 997.42 998.45 999.35 1000.00 1000.86 1001.64 1002.20 1002.83 1003.86 1004.91 1005.57 1006.17 1006.87 1007.36 1007.85 1008.53 1009.28 1009.71 1009.67 1010.54 1011.34 1012.00 1012.29 1012.95 1013.40 1014.03 1013.59 1013.43 1013.39 1013.51 1013.62 1013.73 1013.94 1014.79 1014.67 1014.42 1013.67 1012.75 1011.93
993.93 994.79 994.91 996.28 997.62 998.62 999.58 999.99 1000.66 1001.37 1002.11 1003.07 1004.13 1005.07 1005.58 1005.93 1006.56 1007.07 1007.51 1007.88 1008.25 1008.68 1009.98 1010.78 1010.91 1011.34 1012.13 1013.10 1013.70 1014.11 1013.55 1013.06 1013.11 1013.22 1013.05 1013.90 1014.52 1014.96 1014.72 1014.47 1013.81 1012.99 1012.27
994.80 995.27 996.02 996.96 998.11 998.92 999.93 1000.65 1001.23 1001.80 1002.53 1003.35 1004.45 1005.37 1005.81 1006.12 1006.91 1007.58 1008.17 1009.18 1009.70 1009.54 1009.25 1010.43 1010.57 1011.48 1012.41 1013.37 1014.05 1014.47 1014.23 1013.55 1013.46 1013.14 1012.81 1013.54 1014.46 1014.47 1014.39 1014.44 1013.94 1013.49 1012.74
995.73 996.30 996.89 998.21 999.37 999.99 1000.35 1001.39 1001.88 1002.34 1002.91 1004.32 1004.91 1005.42 1006.27 1006.61 1006.46 1007.96 1009.24 1009.75 1010.37 1010.80 1010.59 1010.56 1010.71 1011.00 1012.81 1013.47 1014.24 1014.79 1014.61 1014.75 1014.35 1013.67 1013.29 1013.73 1014.29 1014.38 1014.08 1014.15 1013.81 1013.05 1012.35
996.82 997.74 998.49 999.37 1000.21 1000.82 1001.24 1001.99 1002.75 1003.08 1003.61 1004.33 1005.08 1006.20 1005.15 1007.59 1008.09 1008.23 1009.07 1009.89 1010.52 1010.75 1010.53 1011.30 1011.43 1011.76 1012.56 1013.46 1014.44 1014.97 1014.89 1014.80 1014.43 1014.14 1014.03 1013.90 1014.07 1013.98 1013.62 1013.68 1013.42 1012.85 1012.41
998.28 999.21 999.91 1000.19 1001.26 1002.18 1002.71 1003.03 1003.70 1004.21 1004.49 1004.35 1005.12 1006.39 1006.65 1007.62 1007.93 1008.18 1008.75 1008.77 1009.97 1010.36 1010.82 1010.92 1011.33 1012.09 1012.67 1012.73 1013.97 1014.52 1014.49 1014.49 1014.32 1014.09 1013.57 1013.43 1013.69 1013.64 1013.73 1013.23 1012.99 1012.97 1012.66
999.52 1000.27 1001.12 1001.53 1002.17 1002.65 1003.08 1003.58 1003.75 1004.02 1004.81 1005.18 1005.57 1006.42 1007.17 1007.91 1008.60 1009.75 1010.72 1010.48 1010.52 1011.22 1010.81 1010.71 1010.99 1012.05 1012.55 1013.67 1013.73 1013.63 1013.74 1014.33 1014.50 1014.43 1013.21 1013.08 1013.23 1013.32 1013.38 1013.41 1013.25 1013.29 1013.02
1000.30 1001.13 1001.77 1001.92 1002.51 1002.94 1003.24 1003.41 1003.84 1004.47 1005.09 1005.52 1005.94 1006.78 1007.60 1008.37 1009.11 1010.01 1010.46 1011.10 1011.34 1011.21 1011.05 1011.77 1011.31 1012.52 1012.93 1013.75 1014.17 1014.64 1015.04 1015.00 1014.73 1014.10 1013.48 1013.50 1013.62 1013.66 1013.74 1013.63 1013.49 1013.50 1013.31
Wind_Speed
18 18 18 17 16 15 15 14 14 12 10 9 9 9 8 9 8 7 5 4 6 7 4 7 4 4 5 4 5 6 8 7 7 7 9 9 5 2 6 6 7 8 5
18 18 19 18 17 17 16 15 14 13 12 10 8 8 8 8 8 8 7 9 10 7 6 6 6 4 5 5 3 4 7 7 6 5 9 7 8 8 11 4 6 5 7
20 20 20 20 19 18 18 16 15 15 13 12 9 7 7 6 6 7 7 7 9 9 8 6 7 6 5 6 5 4 5 7 7 1 3 6 6 11 6 8 5 9 9
20 19 21 21 20 19 19 17 16 15 14 14 11 12 9 10 10 9 9 8 9 9 9 8 7 5 5 3 4 2 4 4 7 7 4 2 6 10 10 8 9 8 7
21 22 23 22 21 20 19 19 17 16 15 15 15 11 12 9 8 9 6 6 6 9 9 9 8 7 7 6 3 1 3 6 5 7 6 7 8 7 10 12 12 11 11
22 22 21 22 21 20 20 20 19 17 18 16 18 15 13 12 10 10 8 8 10 10 9 8 6 5 4 4 4 3 4 4 4 5 7 8 8 9 10 11 12 14 12
22 22 23 22 21 23 22 20 20 20 19 19 18 18 16 13 13 10 10 10 10 9 8 9 7 7 5 4 4 4 3 4 4 6 7 8 7 8 10 10 12 12 11
23 24 25 23 23 24 22 21 21 20 20 19 18 16 16 13 13 13 12 11 11 9 9 8 8 6 6 5 4 4 5 4 4 5 6 7 8 8 9 10 12 13 12
23 25 25 25 23 23 23 23 20 19 20 20 16 17 16 17 14 15 13 12 9 8 9 7 8 7 7 6 5 6 6 4 2 6 5 6 8 9 10 11 11 12 14
21 22 23 23 24 24 22 23 22 19 19 19 17 16 17 17 15 12 13 13 11 10 7 10 11 9 7 7 6 5 5 3 3 5 5 6 8 9 10 11 11 12 13
18 19 22 25 25 24 24 23 22 21 19 19 18 17 16 16 15 14 13 13 12 9 7 9 9 8 8 8 7 5 4 3 5 6 8 8 8 9 10 11 11 12 12
9 10 18 22 24 25 22 23 19 20 19 17 16 16 15 15 14 14 14 13 13 11 8 9 10 8 9 8 7 6 4 5 7 7 7 9 8 10 10 10 13 13 12
7 11 10 16 20 20 20 19 19 18 16 16 15 14 14 13 13 14 13 13 12 9 11 11 4 9 9 8 7 6 5 7 7 6 8 9 10 10 9 10 11 12 12
6 8 9 10 13 15 15 16 17 17 15 15 14 14 14 13 14 12 12 12 8 9 12 9 10 13 10 8 7 6 6 7 7 6 8 10 11 10 11 11 12 11 14
7 8 10 9 9 11 12 12 13 14 14 14 14 14 13 13 13 9 8 9 9 11 11 12 10 10 8 7 7 6 7 6 5 8 9 10 10 13 8 9 11 13 13
12 10 12 13 12 11 12 11 12 12 13 13 14 13 12 12 8 11 11 10 9 8 10 10 10 9 7 12 11 2 4 5 6 8 9 11 13 8 7 3 13 15 14
11 11 13 13 12 13 12 14 13 12 12 13 13 12 12 11 11 10 8 7 9 8 8 8 8 8 5 9 9 6 5 6 7 8 8 10 10 11 11 13 17 17 13
13 10 10 14 15 15 14 13 14 13 15 14 14 13 12 11 11 11 10 10 10 9 7 7 8 8 6 11 9 7 6 6 8 8 9 9 10 8 10 12 15 16 14
13 8 9 13 14 15 15 14 15 15 15 15 13 11 13 13 13 13 14 13 10 10 11 10 8 7 10 10 9 6 6 8 7 7 8 9 8 10 9 10 14 15 14
7 9 7 11 13 13 15 16 16 16 15 14 14 14 15 14 14 14 14 12 12 13 9 8 8 8 6 8 9 6 5 8 5 6 2 14 9 2 4 8 12 13 14
5 7 9 10 12 14 14 14 14 14 13 13 13 12 12 11 11 8 9 8 8 9 9 10 8 8 7 8 7 4 5 6 6 7 6 8 4 9 8 7 9 12 13
11 11 12 12 11 12 13 13 11 11 13 11 11 11 8 4 8 11 7 7 7 6 5 8 7 8 6 12 6 2 1 3 6 7 6 7 10 9 10 9 10 15 14
13 13 14 15 13 12 13 14 12 12 12 12 10 8 15 9 8 9 11 7 9 6 7 5 5 7 7 7 9 6 5 6 5 4 2 4 9 12 9 8 11 10 9
15 15 16 17 15 13 12 13 12 10 10 13 11 10 11 11 10 9 10 9 6 6 7 5 6 6 6 8 7 7 7 10 8 2 4 3 5 6 8 8 7 8 8
15 15 15 15 15 14 12 11 11 11 10 10 10 10 8 7 6 8 7 3 8 2 1 6 4 7 6 5 11 7 5 5 5 7 3 5 6 6 6 7 7 8 8
16 15 15 16 15 14 14 12 12 12 10 9 7 7 8 5 6 5 6 16 11 7 12 8 7 7 14 13 15 12 6 3 4 3 5 5 6 6 7 7 7 8 8
Wind_Direction
188 187 190 189 187 190 191 193 197 190 200 199 207 209 222 215 229 236 216 239 225 250 245 266 257 235 267 28 295 333 329 326 5 326 335 305 248 357 299 334 348 308 307
194 189 188 192 193 192 194 194 199 196 201 205 216 217 217 225 219 225 206 203 229 240 249 255 265 278 297 296 1 353 314 317 11 329 309 330 314 21 327 324 315 350 325
197 190 190 194 195 197 195 195 198 196 201 221 201 209 248 250 252 237 248 224 227 237 236 251 264 307 276 299 17 340 320 328 314 76 294 328 338 331 331 302 330 341 310
196 195 195 196 200 199 194 196 195 200 198 204 210 210 211 222 220 229 228 218 203 220 219 219 236 242 313 11 278 10 326 280 314 322 327 318 289 303 308 310 305 297 299
195 198 196 197 203 201 200 196 194 198 206 197 223 203 222 223 233 233 214 197 215 215 221 216 222 213 211 162 162 258 314 305 306 330 323 304 286 300 307 310 315 317 317
193 198 197 197 201 204 203 200 192 199 201 200 204 226 212 224 228 217 219 218 212 197 227 225 217 192 218 191 184 195 244 263 314 303 297 307 322 314 316 310 310 310 312
196 195 196 197 197 203 204 205 193 195 201 208 207 210 222 214 228 246 211 243 220 206 187 205 187 194 190 198 200 191 216 250 283 298 316 306 316 316 315 309 306 307 306
201 199 198 200 201 203 202 204 200 194 198 206 211 209 212 218 222 217 240 219 233 219 204 205 199 202 198 204 199 215 216 237 256 333 287 306 306 317 312 311 309 299 300
204 203 199 200 202 202 202 205 207 195 196 204 208 208 209 218 219 222 208 240 249 234 196 186 196 206 210 214 200 227 232 228 249 267 259 277 315 314 327 300 306 307 300
203 206 204 203 200 203 202 203 204 206 197 202 206 209 211 212 220 217 222 217 234 209 194 198 189 197 215 214 210 241 234 195 254 274 316 301 304 317 306 317 305 298 296
203 208 206 204 204 204 203 204 205 202 199 203 206 209 209 212 213 221 218 221 218 190 170 203 212 199 211 206 217 242 268 249 251 270 274 305 304 308 319 312 296 317 316
327 260 209 204 200 207 204 204 204 204 200 199 206 208 208 209 210 216 219 220 223 201 185 192 190 203 213 210 217 230 268 221 243 261 289 297 309 312 303 320 315 316 311
270 271 252 204 195 202 203 200 198 202 197 193 201 209 208 206 210 214 213 222 217 205 207 192 149 238 208 210 213 229 239 252 253 276 294 305 306 305 320 325 310 319 313
238 262 248 208 194 189 202 197 197 200 194 191 194 201 209 206 211 214 212 221 203 204 192 151 192 209 206 206 207 211 226 242 257 282 293 304 305 331 317 310 316 316 323
210 239 224 210 195 185 192 201 194 188 186 185 190 198 200 207 209 192 205 201 194 205 195 194 198 203 204 205 201 216 228 246 285 287 300 299 335 279 297 295 331 319 313
253 229 214 207 199 198 198 192 184 182 176 181 190 191 191 194 189 182 194 191 187 159 192 218 202 203 215 112 108 177 256 271 271 283 299 315 295 357 301 13 337 305 295
259 217 206 202 198 197 193 190 181 172 173 177 186 178 178 157 161 169 162 175 155 177 193 202 204 209 172 109 111 123 245 266 284 297 303 308 324 326 348 335 318 307 314
262 282 191 189 191 193 186 181 175 171 173 172 173 155 157 156 159 163 156 162 176 185 184 197 196 187 129 133 134 149 242 272 279 286 304 315 314 35 1 332 316 319 326
276 287 238 178 178 186 176 169 167 169 167 167 147 159 164 162 165 172 176 177 176 177 171 183 180 191 140 145 140 181 244 258 263 295 299 279 300 42 13 325 322 322 328
222 238 169 165 169 172 174 165 162 164 159 153 159 168 173 172 168 170 175 172 159 165 178 163 176 177 158 129 138 199 263 283 310 295 303 66 53 16 350 331 321 326 330
152 154 167 160 162 158 160 162 157 150 151 149 149 164 163 159 162 165 149 140 171 167 164 181 166 165 201 136 124 119 280 312 324 312 321 91 60 9 342 306 309 318 306
126 145 134 123 141 151 147 149 135 128 130 133 138 140 132 134 130 124 127 157 185 165 187 172 172 159 157 114 121 145 48 360 308 300 9 5 357 324 302 299 326 304 306
120 121 130 131 133 137 120 110 112 125 127 121 101 99 115 121 135 138 154 157 184 183 191 174 213 139 171 129 129 186 213 230 272 342 18 280 284 283 299 237 280 308 348
128 127 129 122 114 114 111 110 119 118 117 119 119 143 134 151 154 164 172 173 176 197 201 175 196 165 179 150 169 201 207 232 234 272 216 294 286 276 286 322 -0 6 346
123 127 128 121 114 112 106 105 114 116 110 110 115 128 130 149 102 56 18 354 67 17 344 194 143 182 186 83 90 49 48 4 45 312 292 8 2 0 4 353 3 15 348
124 125 126 123 119 116 115 115 115 114 116 116 130 134 136 118 116 130 111 51 45 51 64 329 98 67 103 110 91 84 73 338 335 269 19 17 7 6 4 354 8 8 358